Showing default

OPS 7034 (TRANSIT 18), 3133

Orbit data source: Space-Track

OPS 7034 (TRANSIT 18), 3133 is a payload satellite owned by USN NAVAIR (US) in LEO that was launched on Sat, 02 Mar 1968 UTC via an SCOUT A launch vehicle from the Air Force Western Test Range (AFWTR). Payload-class satellites include a variety of spacecraft equipped with specific instruments for various scientific and technological missions. These include communications satellites like Starlink; space stations such as the ISS; scientific satellites like the Hubble; Earth observation satellites from companies like Planet Labs, Umbra, and HawkEye 360; GPS; miniature CubeSats for education and research; and military/defense satellites.

Loading next visibility...
Identifier
3133, 1968-012A
Orbit
LEO
Country
Flag of USUS
Related business
Manufacturer
RCA/East Windsor
Mission
Spacecraft
Bus & Motor
TRANSIT 5, Unknown motor
Mass
60 kg wet, 60 kg dry
Launch date (UTC)
1968-03-02 (58 years ago)
Launch vehicle
SCOUT A
Launch site
Air Force Western Test Range (AFWTR)
Object type
Payload
Rocket body
Debris
Shape & HBR
Unknown
Radar Cross Section
Large (>1 m²)

Expand to show TLE details & history
Last TLE update: 8 hours ago

TLE from 8 hours ago
0 OPS 7034 (TRANSIT 18)
1 03133U 68012A   26111.87701627  .00000099  00000-0  13432-3 0  9990
2 03133  90.0222 273.9599 0074871 152.3234  20.3548 13.51598617586768
Epoch: 2026-04-21T21:02Z
TLE epoch observation values (Epoch: 2026-04-21T21:02:54.205Z)
Latitude
6.94714°
Longitude
-71.70976°
Altitude
1,016.49 km
Speed
7.37 km/s
True Right ascension
06h 15m 51s
True Declination
6° 54' 27"
Sunlit
Object was in daylight at epoch
Visualization orbit readout
Latitude
Unknown
Longitude
Unknown
Altitude
Unknown
Speed
Unknown
Apparent Right ascension
Unknown
Apparent Declination
Unknown
Sunlit
N/A
Visualization observer readout
Local Sidereal Time
11:54:55
Azimuth
Unknown
Elevation
Unknown
Doppler factor
Unknown
Orbital elements
Apogee altitude
1,119.146 km
Perigee altitude
1,007.714 km
Semi-major axis
7,441.567 km
Eccentricity
0.00749
Inclination
90.0222°
RAAN
273.9599°
Arg. of periapsis
152.3234°
True anomaly
20.65587°
Mean anomaly
20.3548°
Eccentric anomaly
20.50507°
Mean motion
3.38101 °/min
Orbital period
106.48 mins
BSTAR
0.00013432
Loading maneuver chart data...
Computing Atmospheric mass density...
Loading historical data...
Loading historical data...
Loading historical data...
Loading historical data...
Loading historical data...
Loading historical data...
Loading historical data...

Documentation

Showing up to 5 results
|